User: anonymous   Login
Location: Bluff Heights
(33.7692°N, 118.1592°W)
Time: 03:25:15
(UTC+00:00)
Language:

Tiros 1 despin weight - Orbit

View from above orbital plane
View from above orbital plane
View from above satellite
View from above satellite

Ground track
Ground track

The orbit data is extracted from the following two-line orbital elements,

1   115U 60002D   21212.77612103  .00000025  00000-0  29870-4 0  9997
2   115  48.1669 105.6531 0034892 253.9621 105.7447 14.83801505273755
Epoch (UTC): 31 July 2021 18:37:36
Eccentricity: 0.0034892
inclination: 48.1669°
perigee height: 593 km
apogee height: 642 km
right ascension of ascending node: 105.6531°
argument of perigee: 253.9621°
revolutions per day: 14.83801505
mean anomaly at epoch: 105.7447°
orbit number at epoch: 27375

The dashed part of the orbit path shows where the satellite is in the earth's shadow,  

DLR